Location: *
(28.2408°N, 53.4600°E)
Time: 16:02:30
(UTC+00:00)

Cosmos 1980 - Pass Details

Date: 22 September 2019
Orbit: 841 x 845 km, 71.0° (Epoch: 20 October)

Event Time Altitude Azimuth Distance (km) Brightness Sun altitude
Rises 15:33:25 0° 349° (N) 3,396 7.1 -16.2°
Reaches altitude 10° 15:36:00 10° 356° (N) 2,458 6.3 -16.8°
Maximum altitude 15:41:20 43° 67° (ENE) 1,166 4.0 -17.9°
Enters shadow 15:43:24 31° 114° (ESE) 1,435 4.3 -18.4°
